Regional Weather Roundup
Issued by NWS

Home | Current Version | Previous Version | Graphics & Text | Print | Product List | Glossary On
Versions: 1 2 3 4 5 6 7 8 9 10 11 12 13 14 15 16 17 18 19 20 21 22 23 24 25 26 27 28 29 30 31 32 33 34 35 36 37 38 39 40 41 42 43 44 45 46 47 48 49 50
398
ASUS43 KDTX 122301
RWRMI
MICHIGAN HOURLY REGIONAL WEATHER ROUNDUP
NATIONAL WEATHER SERVICE DETROIT/PONTIAC MI
600 PM EST FRI FEB 12 2016

NOTE: "FAIR" INDICATES FEW OR NO CLOUDS BELOW 12,000 FEET WITH NO
SIGNIFICANT WEATHER AND/OR OBSTRUCTION TO VISIBILITY.

MIZ047>049-052>055-059>063-066>070-074>076-081>083-130000-
SOUTHEAST LOWER MICHIGAN

CITY           SKY/WX    TMP DP  RH WIND       PRES   REMARKS
ADRIAN         PTCLDY    18   6  59 NW14G24   30.04R WCI   4
ALMA           LGT SNOW  17   9  71 N18G25    30.06R WCI   0
ANN ARBOR      PTCLDY    17   7  64 NW17G26   30.01R WCI   1
BAD AXE        LGT SNOW  15  12  85 N14       29.97R VSB 3/4 WCI   1
CARO           MOCLDY    16   9  73 NW13G20   29.99R WCI   2
DETROIT CITY   PTCLDY    19   6  57 NW15G26   29.99R WCI   5
DETROIT        LGT SNOW  17  13  84 NW13G25   30.01R BLWGSNOWWCI   4
FLINT          CLEAR     17   4  56 NW13      30.01R WCI   4
GROSSE ILE     LGT SNOW  18  14  86 NW12      29.99R WCI   5
HILLSDALE      LGT SNOW  15   9  76 NW20      30.02R WCI  -2
HOWELL         LGT SNOW  17   7  66 NW16G29   30.00R WCI   1

CITY           SKY/WX    TMP DP  RH WIND       PRES   REMARKS
JACKSON        CLOUDY    16   8  71 NW16G22   30.03R WCI   1
LAMBERTVILLE   MOCLDY    19   9  67 W8        30.03R WCI   8
LANSING        LGT SNOW  16   5  62 NW16G26   30.05R WCI   1
LAPEER         MOCLDY    17   9  72 N13       29.98R WCI   3
MASON          LGT SNOW  16  10  77 NW13      30.03R WCI   2
MONROE         MOCLDY    21   9  59 NW16G23   30.01R WCI   7
MT. CLEMENS    PTCLDY    18   8  64 NW16G22   29.96R WCI   3
PONTIAC        FLURRIES  16   7  67 NW15G28   29.97R WCI   1
PORT HOPE        N/A     18  11  74 NW23G36   29.96R WCI   0
PORT HURON     CLEAR     18   7  62 W9        29.97R WCI   6
TRI CITIES     CLOUDY    16   5  62 N18       30.04R WCI   0
MIDLAND        FAIR      14   1  56 N14G23    30.05R WCI  -1
TROY           PTCLDY    19  11  69 NW13G20   30.00R WCI   6
SAGINAW HB     SNOW      18  14  86 NW26G33   30.03R VSB 1/4 WCI  -1
$$
MIZ043>046-050>051-056>058-064>065-071>073-077>080-130000-
SOUTHWEST LOWER MICHIGAN

CITY           SKY/WX    TMP DP  RH WIND       PRES   REMARKS
BATTLE CREEK   LGT SNOW  16   9  74 NW14G22   30.08R WCI   2
BENTON HARBOR  LGT SNOW  19   5  54 NW21G32   30.17R WCI   3
BIG RAPIDS     CLOUDY    13   7  79 N10G20    30.07R HAZE    WCI   0
COLDWATER      PTCLDY    17   9  72 NW16G28   30.07R HAZE    WCI   1
FREMONT        LGT SNOW  13   8  78 NW21G28   30.11R WCI  -5
HOLLAND        HVY SNOW  16  10  77 NW16G31   30.14R VSB 1/4 WCI   1
GRAND RAPIDS   FLURRIES  16   7  67 NW21G26   30.09R WCI  -1
IONIA          MOCLDY    16   3  55 NW13G29   30.06R WCI   2
KALAMAZOO      LGT SNOW  16  10  77 NW16      30.10R VSB 3/4 WCI   1
LUDINGTON      CLOUDY    14   4  64 NW18G25   30.17R HAZE    WCI  -3
MARSHALL       PTCLDY    16   5  62 NW13G21   30.06R WCI   2
MOUNT PLEASANT LGT SNOW  15   8  73 N16G24    30.06R WCI  -1
MUSKEGON       LGT SNOW  17   5  59 N20G29    30.15R VSB 1   WCI   1
SOUTH HAVEN    LGT SNOW  18   8  66 NW15G30   30.15R VSB 1   WCI   3
$$
MIZ016>042-130000-
NORTHERN LOWER MICHIGAN

CITY           SKY/WX    TMP DP  RH WIND       PRES   REMARKS
ALPENA         PTCLDY     7  -9  48 NW23G33   30.06R BLWGSNOWWCI -14
BEAVER ISLAND  CLOUDY     6  -5  60 NW15G30   30.16R HAZE    WCI -12
BELLAIRE       LGT SNOW   9  -2  60 NW12G21   30.15R WCI  -6
CADILLAC       CLOUDY     7  -1  67 NW13G30   30.06R HAZE    WCI  -9
CHARLEVOIX     MOCLDY     8  -4  57 NW25G35   30.16R WCI -13
FRANKFORT      CLOUDY    10  -1  60 NW15G26   30.19R HAZE    WCI  -6
GAYLORD        SNOW       4   0  83 VRB6      30.03R VSB 1/2 WCI  -7
GRAYLING       LGT SNOW   7  -1  71 NW15G29   30.05R VSB 3/4 WCI -10
HARBOR SPRINGS LGT SNOW   6  -3  66 NW13      30.12R WCI -11
HOUGHTON LAKE  LGT SNOW   8  -2  63 NW14G26   30.04R WCI  -8
MANISTEE       CLOUDY    12   1  62 N13G26    30.17R VSB 1/2 WCI  -3
OSCODA         PTCLDY    10  -1  60 NW14G26   30.03R HAZE    WCI  -5
PELLSTON       LGT SNOW   5  -1  76 NW15      30.13R VSB 1   WCI -13
ROGERS CITY    CLOUDY     7  -5  58 NW17G31   30.08R HAZE    WCI -12
TRAVERSE CITY  LGT SNOW  10  -4  53 NW21G29   30.15R BLWGSNOWWCI  -9
$$
MIZ007>008-015-130000-
EASTERN UPPER MICHIGAN

CITY           SKY/WX    TMP DP  RH WIND       PRES   REMARKS
KINROSS        CLOUDY     1   0  92 NW16G22   30.08R VSB 1/4 WCI -18
MACKINAC ISLAN CLOUDY     3  -6  66 N20       30.11R WCI -18
NEWBERRY       LGT SNOW   2  -3  79 NW14G23   30.11R VSB 1   WCI -16
S. S. MARIE    LGT SNOW  -1 -10  65 N16G26    30.09R WCI -21
$$
MIZ004>006-011>014-085-130000-
CENTRAL UPPER MICHIGAN

CITY           SKY/WX    TMP DP  RH WIND       PRES   REMARKS
MANISTIQUE     LGT SNOW   3  -2  78 NW17G24   30.17R VSB 1   WCI -16
ESCANABA       CLOUDY     1 -11  55 NW14G26   30.26R WCI -17
MENOMINEE      PTCLDY     5 -15  39 NW18G30   30.26R WCI -15
SAWYER-GWINN   PTCLDY    -4 -13  65 NW18      30.20R WCI -26
$$
MIZ001>003-009>011-084-130000-
WESTERN UPPER MICHIGAN

CITY           SKY/WX    TMP DP  RH WIND       PRES   REMARKS
IRON MOUNTAIN  PTCLDY     0 -14  51 NW18G28   30.24R WCI -21
HOUGHTON       HVY SNOW   1  -6  72 NW20G28   30.25R VSB 1/4 WCI -20
COPPER HARBOR    N/A      4  -1  80 N26G36    30.27R WCI -19
IRONWOOD       CLOUDY     1  -6  71 NW15      30.32R WCI -18
$$

ABBREVIATIONS USED IN REMARKS
   TC - TEMPERATURE IN CELSIUS
  WCI - WIND CHILL INDEX
   HX - HEAT INDEX
  VSB - VISIBILITY





USA.gov is the U.S. government's official web portal to all federal, state and local government web resources and services.